Location: Home
(42.5358°N, 72.7383°W)
Time: 09:23:05
(UTC-05:00)

Vanguard 2 - Pass Details

Date: 05 December 2021
Orbit: 553 x 2936 km, 32.9° (Epoch: 21 January)

Event Time Altitude Azimuth Distance (km) Brightness Sun altitude
Rises 13:17:57 0° 238° (WSW) 2,816 11.4 21.3°
Reaches altitude 10° 13:20:12 10° 225° (SW) 2,036 11.2 21.2°
Maximum altitude 13:24:08 28° 165° (SSE) 1,437 10.0 20.8°
Drops below altitude 10° 13:29:31 10° 109° (ESE) 2,848 10.4 20.4°
Sets 13:33:17 0° 99° (E) 4,211 11.1 20.1°
